| time (UTC) | temp C | wind direction | speed KPH | gust KPH | rain 1hr cm | rain 24hr cm | rain mn cm | humidity % | barometer mb |
| 20260506102511 | 4 | 45 | 1.6 | 1.6 | 0.00 | 0.00 | 1.68 | 74 | 1017.7 |
| 20260506101510 | 4 | 176 | 0.0 | 0.0 | 0.00 | 0.00 | 1.68 | 74 | 1017.4 |
| 20260506101009 | 4 | 107 | 1.6 | 3.2 | 0.00 | 0.00 | 1.68 | 74 | 1017.6 |
| 20260506100005 | 4 | 45 | 1.6 | 1.6 | 0.00 | 0.00 | 1.68 | 74 | 1017.4 |
| 20260506095503 | 5 | 225 | 0.0 | 1.6 | 0.00 | 0.00 | 1.68 | 74 | 1017.5 |
| 20260506094001 | 5 | 45 | 0.0 | 0.0 | 0.00 | 0.00 | 1.68 | 73 | 1017.3 |
| 20260506093457 | 5 | 45 | 0.0 | 1.6 | 0.00 | 0.00 | 1.68 | 74 | 1017.3 |
| 20260506092956 | 5 | 180 | 0.0 | 1.6 | 0.00 | 0.00 | 1.68 | 73 | 1017.4 |
| 20260506091953 | 5 | 180 | 0.0 | 1.6 | 0.00 | 0.00 | 1.68 | 73 | 1017.5 |
| 20260506091456 | 5 | 0 | 0.0 | 0.0 | 0.00 | 0.00 | 1.68 | 73 | 1017.4 |
| 20260506085948 | 5 | 225 | 0.0 | 0.0 | 0.00 | 0.00 | 1.68 | 73 | 1017.3 |
| 20260506085446 | 5 | 225 | 0.0 | 0.0 | 0.00 | 0.00 | 1.68 | 73 | 1017.4 |
| 20260506084945 | 5 | 45 | 0.0 | 0.0 | 0.00 | 0.00 | 1.68 | 73 | 1017.4 |
| 20260506082438 | 6 | 270 | 0.0 | 0.0 | 0.00 | 0.00 | 1.68 | 73 | 1017.5 |
| 20260506072924 | 6 | 225 | 0.0 | 0.0 | 0.00 | 0.00 | 1.68 | 73 | 1017.2 |
| 20260506072421 | 6 | 225 | 0.0 | 0.0 | 0.00 | 0.00 | 1.68 | 73 | 1017.1 |
| 20260506071920 | 6 | 225 | 0.0 | 0.0 | 0.00 | 0.00 | 1.68 | 73 | 1017.2 |
| 20260506071423 | 6 | 225 | 0.0 | 0.0 | 0.00 | 0.00 | 1.68 | 73 | 1017.2 |
| 20260506062405 | 7 | 180 | 0.0 | 0.0 | 0.00 | 0.00 | 1.68 | 73 | 1016.6 |
| 20260506061905 | 7 | 225 | 0.0 | 0.0 | 0.00 | 0.00 | 1.68 | 73 | 1016.6 |
| 20260506061402 | 7 | 225 | 0.0 | 0.0 | 0.00 | 0.00 | 1.68 | 73 | 1016.5 |
| 20260506060400 | 7 | 225 | 0.0 | 0.0 | 0.00 | 0.00 | 1.68 | 73 | 1016.6 |
| 20260506051347 | 6 | 225 | 0.0 | 0.0 | 0.00 | 0.00 | 1.68 | 72 | 1016.3 |
| 20260506044339 | 7 | 225 | 0.0 | 1.6 | 0.00 | 0.00 | 1.68 | 71 | 1016.0 |
| 20260506041833 | 7 | 225 | 0.0 | 0.0 | 0.00 | 0.00 | 1.68 | 70 | 1015.9 |
| 20260506032817 | 8 | 225 | 0.0 | 1.6 | 0.00 | 0.00 | 1.68 | 68 | 1015.4 |
| 20260506031315 | 8 | 169 | 0.0 | 0.0 | 0.00 | 0.00 | 1.68 | 67 | 1015.2 |
| 20260506025812 | 9 | 180 | 0.0 | 3.2 | 0.00 | 0.00 | 1.68 | 67 | 1015.0 |
| 20260506025313 | 10 | 191 | 0.0 | 1.6 | 0.00 | 0.00 | 1.68 | 66 | 1014.8 |
| 20260506024306 | 10 | 148 | 3.2 | 4.8 | 0.00 | 0.00 | 1.60 | 65 | 1014.9 |
| 20260506020757 | 10 | 180 | 0.0 | 0.0 | 0.00 | 0.00 | 1.60 | 64 | 1014.7 |
| 20260506020255 | 11 | 191 | 0.0 | 1.6 | 0.00 | 0.00 | 1.60 | 64 | 1014.9 |
| 20260506014751 | 11 | 168 | 0.0 | 1.6 | 0.00 | 0.00 | 1.60 | 63 | 1014.6 |
| 20260506013247 | 12 | 180 | 1.6 | 1.6 | 0.00 | 0.00 | 1.60 | 62 | 1014.4 |
| 20260506010742 | 12 | 180 | 1.6 | 1.6 | 0.00 | 0.00 | 1.60 | 61 | 1014.3 |
| 20260506010244 | 13 | 180 | 0.0 | 1.6 | 0.00 | 0.00 | 1.60 | 61 | 1014.2 |
| 20260506005739 | 13 | 180 | 0.0 | 3.2 | 0.00 | 0.00 | 1.60 | 61 | 1014.2 |
| 20260506004258 | 13 | 357 | 1.6 | 1.6 | 0.00 | 0.00 | 1.60 | 61 | 1014.2 |
| 20260506003733 | 13 | 201 | 0.0 | 3.2 | 0.00 | 0.00 | 1.60 | 61 | 1014.1 |
| 20260506000723 | 14 | 229 | 1.6 | 3.2 | 0.00 | 0.00 | 1.60 | 60 | 1014.0 |
| 20260505234719 | 14 | 225 | 0.0 | 3.2 | 0.00 | 0.00 | 1.60 | 60 | 1013.8 |
| 20260505233218 | 14 | 180 | 1.6 | 3.2 | 0.00 | 0.00 | 1.60 | 60 | 1013.7 |
| 20260505232715 | 14 | 200 | 0.0 | 4.8 | 0.00 | 0.00 | 1.60 | 60 | 1013.9 |
| 20260505232211 | 15 | 225 | 0.0 | 3.2 | 0.00 | 0.00 | 1.60 | 60 | 1013.7 |
| 20260505231714 | 15 | 159 | 3.2 | 4.8 | 0.00 | 0.00 | 1.60 | 60 | 1013.7 |
| 20260505224203 | 14 | 225 | 0.0 | 4.8 | 0.00 | 0.00 | 1.60 | 61 | 1013.6 |
| 20260505223157 | 14 | 180 | 1.6 | 4.8 | 0.00 | 0.00 | 1.60 | 62 | 1013.7 |
| 20260505222157 | 14 | 193 | 1.6 | 4.8 | 0.00 | 0.00 | 1.60 | 62 | 1013.7 |
| 20260505221159 | 14 | 190 | 1.6 | 6.4 | 0.00 | 0.00 | 1.60 | 62 | 1013.7 |
| 20260505220652 | 14 | 217 | 3.2 | 8.0 | 0.00 | 0.00 | 1.60 | 62 | 1013.7 |
| 20260505215147 | 14 | 180 | 1.6 | 3.2 | 0.00 | 0.00 | 1.60 | 61 | 1013.6 |
| 20260505214647 | 14 | 186 | 0.0 | 3.2 | 0.00 | 0.00 | 1.60 | 61 | 1013.7 |
| 20260505214144 | 14 | 225 | 1.6 | 4.8 | 0.00 | 0.00 | 1.60 | 61 | 1013.5 |
| 20260505212647 | 13 | 270 | 0.0 | 4.8 | 0.00 | 0.00 | 1.60 | 60 | 1013.6 |
| 20260505204132 | 13 | 180 | 0.0 | 4.8 | 0.00 | 0.00 | 1.60 | 66 | 1013.6 |
| 20260505201622 | 12 | 225 | 0.0 | 6.4 | 0.00 | 0.00 | 1.60 | 68 | 1013.6 |
| 20260505200120 | 11 | 181 | 1.6 | 4.8 | 0.00 | 0.00 | 1.60 | 69 | 1013.6 |
| 20260505193610 | 10 | 288 | 3.2 | 3.2 | 0.00 | 0.00 | 1.60 | 69 | 1013.7 |
| 20260505193109 | 10 | 270 | 1.6 | 4.8 | 0.00 | 0.00 | 1.60 | 69 | 1013.6 |
| 20260505192110 | 10 | 297 | 3.2 | 6.4 | 0.00 | 0.00 | 1.60 | 70 | 1013.7 |
| 20260505191608 | 9 | 148 | 1.6 | 4.8 | 0.00 | 0.00 | 1.60 | 70 | 1013.7 |
| 20260505184055 | 8 | 336 | 3.2 | 4.8 | 0.00 | 0.00 | 1.60 | 71 | 1013.6 |
| 20260505180547 | 7 | 328 | 1.6 | 6.4 | 0.00 | 0.00 | 1.42 | 73 | 1013.4 |
| 20260505175544 | 7 | 320 | 4.8 | 6.4 | 0.00 | 0.00 | 1.30 | 73 | 1013.2 |
| 20260505175047 | 7 | 331 | 3.2 | 4.8 | 0.00 | 0.00 | 1.22 | 74 | 1013.3 |
| 20260505171629 | 7 | 256 | 0.0 | 0.0 | 0.00 | 0.00 | 0.79 | 75 | 1013.0 |
| 20260505171032 | 7 | 180 | 0.0 | 0.0 | 0.00 | 0.00 | 0.74 | 75 | 1012.9 |
| 20260505170530 | 6 | 180 | 0.0 | 0.0 | 0.00 | 0.00 | 0.71 | 75 | 1013.0 |
| 20260505170131 | 6 | 180 | 0.0 | 3.2 | 0.00 | 0.00 | 0.66 | 76 | 1013.0 |
| 20260505165025 | 5 | 225 | 0.0 | 0.0 | 0.00 | 0.00 | 0.58 | 76 | 1013.0 |
| 20260505164022 | 4 | 270 | 0.0 | 0.0 | 0.00 | 0.00 | 0.48 | 77 | 1013.0 |
| 20260505163019 | 4 | 225 | 0.0 | 0.0 | 0.00 | 0.00 | 0.46 | 76 | 1013.1 |
| 20260505162519 | 3 | 225 | 0.0 | 0.0 | 0.00 | 0.00 | 0.43 | 76 | 1013.1 |
| 20260505162017 | 3 | 191 | 0.0 | 0.0 | 0.00 | 0.00 | 0.41 | 76 | 1013.2 |
| 20260505161014 | 3 | 270 | 0.0 | 0.0 | 0.00 | 0.00 | 0.38 | 76 | 1013.0 |
| 20260505160514 | 3 | 225 | 0.0 | 1.6 | 0.00 | 0.00 | 0.38 | 76 | 1013.0 |
| 20260505153004 | 2 | 225 | 0.0 | 0.0 | 0.00 | 0.00 | 0.23 | 77 | 1012.6 |
| 20260505152503 | 2 | 225 | 0.0 | 0.0 | 0.00 | 0.00 | 0.23 | 77 | 1012.5 |
| 20260505152000 | 2 | 225 | 0.0 | 0.0 | 0.00 | 0.00 | 0.20 | 77 | 1012.5 |
| 20260505150457 | 2 | 225 | 0.0 | 0.0 | 0.00 | 0.00 | 0.18 | 76 | 1012.5 |
| 20260505140441 | 1 | 180 | 0.0 | 0.0 | 0.00 | 0.00 | 0.08 | 76 | 1012.3 |
| 20260505124920 | 1 | 0 | 0.0 | 0.0 | 0.00 | 0.00 | 0.00 | 76 | 1012.2 |
| 20260505124419 | 1 | 355 | 0.0 | 0.0 | 0.00 | 0.00 | 0.00 | 76 | 1012.2 |
| 20260505123918 | 1 | 358 | 0.0 | 0.0 | 0.00 | 0.00 | 1.47 | 76 | 1012.0 |
| 20260505123416 | 1 | 357 | 0.0 | 0.0 | 0.00 | 0.00 | 1.47 | 76 | 1012.0 |
| 20260505122914 | 1 | 0 | 0.0 | 0.0 | 0.00 | 0.00 | 1.47 | 76 | 1012.1 |
| 20260505122414 | 1 | 0 | 0.0 | 0.0 | 0.00 | 0.00 | 1.47 | 76 | 1012.0 |
| 20260505121912 | 1 | 357 | 0.0 | 0.0 | 0.00 | 0.00 | 1.45 | 76 | 1012.1 |
| 20260505121411 | 1 | 0 | 0.0 | 0.0 | 0.00 | 0.00 | 1.45 | 76 | 1011.9 |
| 20260505120909 | 1 | 358 | 0.0 | 0.0 | 0.00 | 0.00 | 1.45 | 76 | 1012.0 |
| 20260505115906 | 1 | 358 | 0.0 | 0.0 | 0.00 | 0.00 | 1.45 | 76 | 1011.9 |
| 20260505115406 | 1 | 358 | 0.0 | 0.0 | 0.00 | 0.00 | 1.45 | 76 | 1011.9 |
| 20260505113901 | 1 | 358 | 0.0 | 0.0 | 0.00 | 0.00 | 1.42 | 76 | 1011.8 |
| 20260505113401 | 1 | 0 | 0.0 | 0.0 | 0.00 | 0.00 | 1.42 | 76 | 1012.0 |
| 20260505112858 | 1 | 356 | 0.0 | 0.0 | 0.00 | 0.00 | 1.42 | 76 | 1012.0 |
| 20260505111856 | 1 | 357 | 0.0 | 0.0 | 0.00 | 0.00 | 1.42 | 76 | 1012.1 |
| 20260505110352 | 1 | 0 | 0.0 | 0.0 | 0.00 | 0.00 | 1.40 | 76 | 1011.9 |